Retour au catalogue

STARLINK-2435

ActifCommunicationsVLEO
NORAD 47843·PAYLOAD·🇺🇸 United States

Lancé Mar 11, 2021 depuis Cape Canaveral Space Force Station

Loading…

Prochains Passages (prochaines 24 heures)

TLE

FraisSource: CelesTrak SupGP

Époque: Sep 14, 2026, 20:01 UTC

1 47843C 21018BJ  26257.83451389 -.00013185  00000+0 -42409-3 0  2579
2 47843  53.1577  95.0610 0001270  80.9546 336.3407 15.31700929    13

Suivez STARLINK-2435 en temps réel avec AllMySat

Download on the App Store